TimeHST,TemperatureF,Dew PointF,Humidity,Sea Level PressureIn,VisibilityMPH,Wind Direction,Wind SpeedMPH,Gust SpeedMPH,PrecipitationIn,Events,Conditions,WindDirDegrees,DateUTC
12:55 AM,66.2,63.3,90,30.00,10.0,West,4.6,-,N/A,,Partly Cloudy,270,2013-06-30 10:55:00
1:55 AM,66.7,63.9,90,29.99,10.0,Calm,Calm,-,N/A,,Mostly Cloudy,0,2013-06-30 11:55:00
2:55 AM,68.9,65.3,88,29.99,10.0,Calm,Calm,-,N/A,,Scattered Clouds,0,2013-06-30 12:55:00
3:55 AM,69.1,64.8,86,29.99,10.0,Calm,Calm,-,N/A,,Overcast,0,2013-06-30 13:55:00
4:55 AM,68.0,64.0,87,30.00,10.0,Calm,Calm,-,N/A,,Partly Cloudy,0,2013-06-30 14:55:00
5:55 AM,67.6,64.2,89,30.01,10.0,Calm,Calm,-,N/A,,Partly Cloudy,0,2013-06-30 15:55:00
6:55 AM,71.2,66.4,85,30.02,10.0,Calm,Calm,-,N/A,,Scattered Clouds,0,2013-06-30 16:55:00
7:55 AM,74.7,64.6,71,30.03,10.0,Variable,3.5,-,N/A,,Clear,0,2013-06-30 17:55:00
8:55 AM,77.0,65.7,68,30.03,10.0,ENE,5.8,-,N/A,,Clear,70,2013-06-30 18:55:00
9:55 AM,78.6,65.5,64,30.03,10.0,East,8.1,-,N/A,,Clear,80,2013-06-30 19:55:00
10:55 AM,79.2,65.7,63,30.02,10.0,ENE,8.1,-,N/A,,Scattered Clouds,70,2013-06-30 20:55:00
11:55 AM,81.7,65.1,57,30.01,10.0,ENE,15.0,-,N/A,,Partly Cloudy,70,2013-06-30 21:55:00
12:55 PM,82.8,65.7,56,29.99,10.0,ENE,16.1,20.7,N/A,,Overcast,60,2013-06-30 22:55:00
1:55 PM,82.4,64.2,54,29.98,10.0,ENE,15.0,-,N/A,,Clear,60,2013-06-30 23:55:00
2:55 PM,82.6,64.4,54,29.97,10.0,NE,17.3,-,N/A,,Clear,50,2013-07-01 00:55:00
3:55 PM,81.5,64.0,55,29.96,10.0,ENE,11.5,17.3,N/A,,Clear,70,2013-07-01 01:55:00
4:55 PM,80.6,63.5,56,29.96,10.0,ENE,9.2,-,N/A,,Clear,60,2013-07-01 02:55:00
5:55 PM,78.8,61.3,55,29.98,10.0,East,10.4,-,N/A,,Clear,80,2013-07-01 03:55:00
6:55 PM,76.3,63.7,65,29.99,10.0,East,8.1,-,N/A,,Partly Cloudy,80,2013-07-01 04:55:00
7:55 PM,74.3,64.0,70,30.01,10.0,Calm,Calm,-,N/A,,Overcast,0,2013-07-01 05:55:00
8:55 PM,73.2,64.2,73,30.02,10.0,NNW,4.6,-,N/A,,Mostly Cloudy,330,2013-07-01 06:55:00
9:55 PM,72.9,63.9,73,30.02,10.0,Variable,3.5,-,N/A,,Mostly Cloudy,0,2013-07-01 07:55:00
10:55 PM,73.0,64.4,74,30.02,10.0,Calm,Calm,-,N/A,,Mostly Cloudy,0,2013-07-01 08:55:00
11:55 PM,69.4,63.3,81,30.01,10.0,Variable,4.6,-,N/A,,Partly Cloudy,0,2013-07-01 09:55:00